Overview Statistics Trail Chart Weather Telemetry Raw packets
 

This is the latest recevied weather packets stored in our database for station/object G4KVI. If no packets are shown the sender has not sent any weather packets the latest 10 day(s).

<< 100 101 102 103 104 105 106 >>
Time Temp. Humidity Pressure Rain* Wind** Luminosity Snow
1787844004 25° C 54% 1009.4 hPa 0 mm - 449 W/m² -
1787843704 25° C 53% 1009.5 hPa 0 mm - 457 W/m² -
1787843404 25° C 50% 1009.2 hPa 0 mm - 471 W/m² -
1787843104 25.56° C 52% 1009.3 hPa 0 mm - 486 W/m² -
1787842804 25° C 53% 1009 hPa 0 mm - 504 W/m² -
1787842504 24.44° C 54% 1008.8 hPa 0 mm - 524 W/m² -
1787842204 24.44° C 53% 1009 hPa 0 mm - 555 W/m² -
1787841904 25° C 53% 1009 hPa 0 mm - 585 W/m² -
1787841604 24.44° C 56% 1009 hPa 0 mm - 620 W/m² -
1787841304 25° C 55% 1009 hPa 0 mm - 641 W/m² -
1787841004 25° C 55% 1009.5 hPa 0 mm - 620 W/m² -
1787840704 25.56° C 55% 1009.5 hPa 0 mm - 271 W/m² -
1787840404 25.56° C 52% 1009.5 hPa 0 mm - 737 W/m² -
1787840104 24.44° C 56% 1009.2 hPa 0 mm - 772 W/m² -
1787839811 24.44° C 55% 1009.3 hPa 0 mm - 647 W/m² -
1787839504 25.56° C 53% 1009.3 hPa 0 mm - 434 W/m² -
1787839204 25.56° C 51% 1009.4 hPa 0 mm - 267 W/m² -
1787838904 25.56° C 51% 1009.2 hPa 0 mm - 242 W/m² -
1787838604 25° C 51% 1008.9 hPa 0 mm - 295 W/m² -
1787838304 24.44° C 54% 1009.2 hPa 0 mm - 775 W/m² -
1787838004 25.56° C 52% 1009 hPa 0 mm - 498 W/m² -
1787837704 25.56° C 51% 1009.2 hPa 0 mm - 600 W/m² -
1787837404 25.56° C 51% 1008.8 hPa 0 mm - 692 W/m² -
1787837104 25.56° C 52% 1009 hPa 0 mm - 435 W/m² -
1787836804 25.56° C 54% 1009 hPa 0 mm - 650 W/m² -

* Rain latest hour (hover to see other rain measurements)
** Current wind speed in m/s (hover to see current wind gust speed)